User: anonymous
Location: Cincinnati Observatory Center
(39.1389°N, 84.4225°W)
Time: 02:48:06
(UTC-04:00)
Language:

JAS-1B - Orbit

View from above orbital plane
View from above orbital plane
View from above satellite
View from above satellite

Ground track
Ground track

The orbit data is extracted from the following two-line orbital elements,

1 20480U 90013C   14231.11425068 -.00000031  00000-0  52838-5 0  8136
2 20480 099.0503 182.4356 0540066 211.1831 217.9379 12.83394807149208
Epoch (UTC): 19 August 2014 02:44:31
Eccentricity: 0.0540066
inclination: 99.0503°
perigee height: 911 km
apogee height: 1744 km
right ascension of ascending node: 182.4356°
argument of perigee: 211.1831°
revolutions per day: 12.83394807
mean anomaly at epoch: 217.9379°
orbit number at epoch: 14920

The dashed part of the orbit path shows where the satellite is in the earth's shadow,  

DLR